Flag for Germany Weather past 2 weeks in Völklingen, Saarland, Germany

Now
59 °F

Partly sunny.


Feels Like: 57 °F
Forecast: 45 / 63 °F
Wind: 9 mph from Northwest

Location: Saarbruecken / Ensheim

Current Time: Sep 3, 2015 at 11:00:59 AM

Latest Report: Sep 3, 2015 at 10:20 AM


Visibility: N/A

Pressure: 29.98 "Hg

Humidity: 72%

Dew point: 50 °F

Location of VölklingenLocation

Historic Weather in Völklingen — Graph

°F

Völklingen temperature yesterday

Maximum temperature yesterday: 68 °F (at 4:20 PM)
Minimum temperature yesterday: 52 °F (at 3:50 AM)
Average temperature yesterday: 58 °F

Past Weeks' High & Low Weather Summary

 TemperatureHumidityPressure
High90 °F (Aug 30, 3:50 PM)100% (Aug 28, 9:20 AM)30.27 "Hg (Aug 28, 9:20 AM)
Low52 °F (Aug 20, 3:50 AM)25% (Aug 31, 2:20 PM)29.68 "Hg (Aug 24, 6:20 AM)
Average67 °F65%30.01 "Hg
* Reported Aug 19 9:20 AM — Sep 3 9:50 AM, Völklingen, Weather by CustomWeather, © 2015

Note: Actual official high and low records may vary slightly from our data, if they occured in-between our weather recording intervals... More about our weather records

Advertising

Völklingen weather history for previous 24 hours

 ConditionsComfort  
Time TempWeatherWind HumidityBarometerVisibility
9:50 AM
Thu, Sep 3
57 °FPassing clouds.6 mph82%29.98 "HgN/A
9:20 AM55 °FSunny.3 mph88%29.98 "Hg10 mi
8:50 AM55 °FSunny.3 mph88%29.98 "Hg10 mi
8:20 AM54 °FSunny.2 mph94%29.98 "Hg10 mi
7:50 AM54 °FSunny.2 mph94%29.98 "Hg10 mi
7:20 AM54 °FClear.2 mph88%29.98 "Hg10 mi
6:50 AM54 °FClear.3 mph88%29.98 "Hg10 mi
6:20 AM54 °FPassing clouds.3 mph88%29.98 "HgN/A
5:20 AM54 °FClear.2 mph88%29.98 "Hg10 mi
4:50 AM54 °FClear.3 mph88%29.98 "Hg10 mi
4:20 AM54 °FClear.5 mph88%29.98 "Hg10 mi
3:50 AM55 °FClear.3 mph82%29.98 "Hg10 mi
3:20 AM55 °FClear.3 mph82%29.98 "Hg10 mi
2:50 AM55 °FClear.3 mph82%29.98 "Hg10 mi
2:20 AM55 °FClear.5 mph82%30.01 "Hg10 mi
1:50 AM55 °FClear.3 mph82%29.98 "Hg10 mi
1:20 AM55 °FClear.5 mph82%29.98 "Hg10 mi
12:50 AM55 °FClear.3 mph82%30.01 "Hg10 mi
12:20 AM55 °FClear.5 mph82%30.01 "Hg10 mi
11:50 PM
Wed, Sep 2
57 °FClear.2 mph77%30.01 "Hg10 mi
11:20 PM57 °FClear.2 mph82%30.01 "Hg10 mi
10:50 PM57 °FClear.1 mph77%30.01 "Hg10 mi
10:20 PM57 °FClear.1 mph77%30.01 "Hg10 mi
9:50 PM57 °FClear.2 mph72%30.01 "Hg10 mi
9:20 PM57 °FClear.3 mph72%30.01 "Hg10 mi
8:50 PM59 °FSunny.2 mph68%30.01 "Hg10 mi
8:20 PM61 °FSunny.2 mph63%30.01 "Hg10 mi
7:50 PM63 °FPassing clouds.5 mph59%30.01 "HgN/A
7:20 PM63 °FSunny.5 mph64%30.01 "Hg10 mi
6:50 PM64 °FSunny.7 mph56%30.01 "Hg10 mi
6:20 PM66 °FScattered clouds.9 mph49%30.01 "HgN/A
5:50 PM68 °FScattered clouds.7 mph46%30.01 "HgN/A
5:20 PM66 °FScattered clouds.8 mph49%30.01 "HgN/A
4:50 PM68 °FScattered clouds.8 mph43%30.01 "HgN/A
4:20 PM68 °FPassing clouds.7 mph53%30.01 "HgN/A
3:50 PM64 °FScattered clouds.8 mph60%30.01 "HgN/A
3:20 PM66 °FScattered clouds.5 mph60%30.01 "HgN/A
2:50 PM64 °FScattered clouds.5 mph64%30.04 "HgN/A
2:20 PM64 °FScattered clouds.6 mph64%30.04 "HgN/A
1:50 PM63 °FScattered clouds.6 mph68%30.04 "HgN/A
1:20 PM63 °FScattered clouds.3 mph68%30.04 "HgN/A
12:50 PM63 °FScattered clouds.2 mph68%30.04 "HgN/A
12:20 PM61 °FScattered clouds.3 mph77%30.07 "HgN/A
11:50 AM59 °FPartly sunny.2 mph82%30.07 "HgN/A
11:20 AM57 °FPartly sunny.2 mph88%30.07 "Hg5 mi
Weather by CustomWeather, © 2015

See weather overviewHow to use our weather pages